Temperature
12 12 12 11 11 12 12 12 12 12 11 11 12 11 11 10 11 12 13 18 18 18 19 20 19 19 19 18 18 18 17 16 16 16 16 15 15 14 14 14 15 15 15 15
12 12 12 10 10 11 11 11 11 11 11 12 11 10 10 11 12 12 12 14 16 17 18 18 19 18 18 18 18 18 18 17 17 18 16 16 17 15 16 16 16 15 15 15
10 11 12 9 9 9 10 10 11 9 11 11 10 10 10 11 11 12 12 14 14 15 16 17 18 17 17 17 17 18 17 17 17 17 17 15 15 15 15 15 15 15 15 15
9 11 10 10 10 10 10 10 10 10 10 10 10 10 11 11 11 12 14 14 14 15 15 15 15 16 16 15 16 16 15 15 15 16 16 15 14 15 15 14 15 15 15 15
9 8 9 10 11 9 9 9 10 9 10 10 10 12 13 12 12 13 14 14 14 14 15 15 15 15 15 15 14 14 14 14 14 15 14 14 14 14 14 14 14 14 14 14
9 9 8 10 11 10 10 9 10 9 9 9 9 10 12 12 13 14 15 14 14 14 14 14 14 14 15 14 13 13 12 12 12 12 13 13 13 13 13 12 13 13 13 13
9 9 9 11 11 10 8 9 10 10 10 9 9 9 11 12 14 15 15 15 14 14 14 14 14 14 13 13 13 12 12 12 11 11 11 11 11 11 11 11 11 11 12 12
8 9 8 11 9 8 9 10 10 10 10 11 11 12 12 13 15 15 15 15 15 15 15 14 14 14 14 13 12 12 12 12 11 11 11 11 11 11 11 11 11 11 11 11
10 10 11 11 10 11 10 10 11 11 11 11 12 12 13 14 15 15 15 15 15 14 15 14 14 14 14 13 13 12 12 12 12 12 12 11 11 11 11 11 11 11 11 11
10 10 11 11 11 11 11 11 12 12 12 12 12 13 13 14 15 15 16 15 15 15 15 15 14 14 14 14 13 13 13 12 12 11 11 11 11 11 11 11 11 11 11 11
10 10 11 11 12 12 12 12 12 12 12 12 12 13 13 14 15 15 15 15 15 15 15 15 15 15 14 14 14 13 12 12 12 11 11 11 11 11 11 11 10 10 10 10
10 11 11 12 13 12 12 12 12 12 12 12 12 13 13 14 14 15 15 15 16 16 16 15 15 15 15 14 14 13 13 12 12 11 11 11 11 11 11 11 10 10 10 10
13 13 13 13 13 12 12 12 12 12 12 12 13 13 13 14 14 15 15 16 16 16 16 16 15 15 15 15 14 13 13 12 12 11 11 11 11 11 11 10 10 10 10 10
13 13 12 12 12 12 12 12 12 12 12 12 12 13 14 14 14 15 15 16 16 16 16 16 16 16 15 15 14 14 13 12 12 11 11 11 11 11 11 10 10 10 10 10
13 13 13 12 12 12 12 12 12 12 12 12 12 13 13 14 15 15 15 16 17 17 17 16 16 16 16 15 15 14 13 12 12 11 11 11 11 11 10 10 10 10 9 10
13 13 12 12 12 12 12 12 12 12 12 12 12 12 13 13 14 15 16 16 17 17 17 16 16 16 16 16 15 15 13 12 12 12 11 11 11 10 10 10 9 9 9 9
13 12 12 12 12 12 12 12 12 11 11 12 12 12 13 13 15 16 16 16 17 16 17 17 17 17 16 16 16 15 14 13 12 12 11 11 11 11 10 10 10 9 9 9
14 13 12 12 12 11 11 11 11 12 12 12 12 12 12 13 14 15 15 16 16 17 17 17 17 17 17 16 16 15 14 13 12 12 11 11 11 11 10 10 10 10 9 9
13 13 12 12 11 11 11 11 11 11 12 12 12 12 12 12 13 14 15 15 16 17 17 17 17 17 17 17 16 15 14 13 12 11 11 11 11 11 10 10 10 9 9 9
13 12 12 12 11 11 11 11 11 11 11 11 12 12 12 12 13 13 14 14 15 15 16 16 17 17 17 16 15 15 14 13 12 11 11 11 11 11 10 10 9 9 9 8
13 12 12 11 11 11 11 11 11 11 11 11 11 12 12 12 12 13 14 14 14 15 16 16 16 16 15 15 15 15 14 12 12 11 11 11 11 11 10 10 9 9 8 8
13 12 12 11 11 11 11 11 11 11 11 11 11 11 11 12 12 13 13 13 14 14 15 16 16 16 15 15 15 14 13 12 12 11 11 11 11 11 10 10 9 9 8 8
13 12 12 11 11 11 11 11 11 11 11 11 11 11 11 11 11 12 13 13 13 14 15 16 17 16 15 15 14 14 13 12 12 11 11 11 11 10 10 10 9 9 8 8
13 12 12 11 11 11 11 11 11 11 11 11 11 10 10 11 12 11 11 12 12 14 15 15 16 16 15 14 14 14 13 12 12 11 11 11 11 10 10 9 9 8 8 8
12 12 12 11 11 11 11 11 11 11 11 11 11 11 10 10 11 11 11 11 11 13 14 15 15 15 15 14 14 13 13 12 12 11 11 11 11 10 10 9 9 8 7 7
12 12 12 12 11 11 11 11 11 11 11 11 11 11 11 11 10 10 11 11 11 12 13 14 14 14 14 14 14 13 13 12 12 12 11 11 10 10 10 9 9 8 7 7
12 12 12 12 12 11 11 11 11 11 11 11 11 11 11 11 11 11 11 11 11 11 13 14 14 13 13 14 14 13 13 12 12 12 11 11 10 10 10 9 9 8 7 7
Wind_Speed
8 11 14 14 18 19 15 10 6 5 6 12 15 17 18 19 15 15 18 11 6 2 1 2 4 4 5 3 1 3 3 8 8 7 6 8 8 9 9 12 9 7 7 7
8 7 13 16 20 20 15 11 10 10 6 13 17 17 19 19 16 12 11 13 15 16 16 14 13 14 14 10 8 8 6 10 11 13 13 13 10 9 8 10 11 4 4 6
3 2 4 8 13 13 10 12 10 8 11 17 19 19 18 17 17 12 9 12 16 15 15 12 12 14 12 9 8 7 6 1 4 8 5 6 3 6 7 7 3 5 8 7
4 5 5 3 6 5 7 8 11 11 12 14 16 16 8 12 15 13 12 12 11 10 11 9 7 8 10 6 5 8 9 9 8 8 6 2 1 2 2 3 3 6 5 0
3 3 2 4 7 7 5 4 10 11 16 18 19 11 7 19 21 12 8 7 6 6 7 7 8 9 8 8 8 9 9 8 8 8 7 6 6 6 5 4 4 3 2 2
3 3 1 3 6 3 0 2 10 11 13 16 15 11 11 19 19 11 4 4 6 6 7 7 7 8 9 8 8 8 7 7 6 7 7 8 7 6 5 5 5 6 6 4
4 2 1 3 6 1 1 5 11 10 11 10 5 7 15 19 16 9 2 3 5 6 5 4 4 7 8 8 8 6 6 6 6 5 5 5 5 6 6 7 7 7 6 5
3 3 2 3 4 2 3 5 7 7 8 9 12 12 13 13 13 9 3 3 5 5 4 3 4 5 6 6 4 5 6 6 5 5 6 5 7 7 7 6 7 7 6 6
2 2 3 1 1 4 4 5 6 6 9 8 9 12 14 13 14 9 2 2 3 3 4 5 3 2 4 4 3 4 5 5 5 6 6 6 6 6 5 6 5 4 4 5
1 2 2 4 3 4 5 7 10 10 9 8 7 11 13 14 12 9 5 3 2 2 4 5 5 3 2 2 2 4 4 3 3 4 3 4 4 4 4 4 4 4 5 5
1 2 1 5 4 5 7 9 10 9 7 7 7 9 8 9 11 9 7 5 2 2 4 5 5 3 3 1 4 4 3 0 1 2 3 2 3 3 2 2 3 3 3 4
5 7 5 4 6 6 6 6 7 6 7 7 6 8 9 9 8 7 8 5 4 5 5 4 3 3 4 2 4 4 3 0 1 2 3 3 3 1 2 2 3 4 5 5
7 8 6 4 4 4 4 4 3 4 6 7 8 7 8 8 8 10 9 7 6 8 8 6 4 4 6 5 4 5 4 3 1 2 3 4 4 3 1 1 1 3 4 6
8 8 5 3 1 2 2 4 5 5 6 6 6 7 8 8 8 10 10 11 9 8 8 8 7 7 5 6 5 5 5 5 3 1 1 2 2 2 2 2 2 1 2 3
9 8 7 5 1 2 2 3 5 6 7 7 7 8 9 9 10 10 11 11 10 7 6 7 7 8 4 6 6 6 5 4 3 1 1 1 1 2 2 3 2 2 3 4
10 8 8 6 3 1 3 4 4 6 7 7 7 8 9 9 9 9 9 10 9 9 8 7 9 8 5 7 7 6 6 6 5 3 1 1 2 2 2 3 4 4 4 4
12 9 7 6 4 2 3 4 4 5 6 7 7 8 8 8 9 10 11 11 10 9 8 7 8 7 5 8 8 6 6 6 6 4 2 2 2 2 2 3 3 3 3 4
12 11 11 9 6 4 4 5 5 6 5 6 6 7 8 9 9 10 11 11 10 10 10 11 9 7 6 8 7 6 6 6 5 4 3 3 3 3 3 4 3 4 3 5
10 11 10 9 7 6 4 5 5 6 7 6 5 6 7 8 8 9 9 9 10 11 14 16 17 7 6 9 8 6 6 6 5 4 3 3 4 3 3 4 3 4 4 4
11 11 10 8 7 5 4 5 5 5 6 4 4 5 6 8 8 9 9 7 6 7 11 14 13 4 4 7 8 6 6 7 6 5 4 4 4 4 4 4 4 3 3 3
12 11 9 8 6 6 5 4 3 4 5 4 4 5 7 8 8 7 7 7 8 11 12 12 10 6 2 5 6 6 6 5 5 5 4 4 5 5 4 4 4 3 3 2
11 10 10 8 7 6 5 4 3 3 3 4 4 5 6 7 8 7 5 6 8 12 10 8 8 9 4 6 5 6 6 5 4 4 5 5 5 5 5 4 3 3 3 3
10 9 9 9 9 7 5 4 3 3 3 2 3 5 5 6 6 6 7 7 8 11 10 8 11 13 3 7 5 6 6 5 4 4 4 5 6 6 5 5 4 3 2 3
10 9 8 8 7 6 5 4 3 4 3 2 3 5 5 5 5 6 7 10 12 12 10 11 14 10 3 4 5 6 6 5 4 4 4 5 6 6 5 5 4 2 3 4
10 9 9 8 7 7 7 6 4 3 3 3 5 5 5 5 6 7 7 9 12 11 8 11 13 6 4 4 5 6 6 5 5 5 5 6 6 6 6 5 5 4 3 3
9 8 8 9 8 7 6 5 4 4 4 3 4 5 5 6 6 7 7 8 10 10 7 7 6 3 3 4 5 6 6 6 6 6 6 6 6 6 6 5 5 6 4 4
9 8 7 5 6 6 6 6 5 5 6 5 4 5 5 6 7 7 8 7 7 8 7 6 6 5 4 4 4 5 6 6 7 7 7 7 6 6 6 6 5 5 5 5
Wind_Direction
70 78 70 38 20 23 41 47 56 35 27 353 347 343 339 336 341 358 355 8 33 50 282 333 282 236 165 199 319 83 112 87 67 5 352 45 345 311 340 316 273 221 224 234
112 107 76 45 21 14 21 32 31 18 358 349 344 348 348 354 10 12 355 20 38 42 53 50 53 52 49 33 34 66 124 171 174 202 185 164 192 208 198 246 268 263 261 257
349 333 137 25 7 8 1 25 17 10 345 346 338 341 343 349 7 14 13 28 42 44 51 46 57 74 62 25 13 48 63 68 224 243 176 202 227 257 258 265 263 218 218 208
356 4 43 325 295 328 338 23 11 345 344 341 332 320 316 3 0 1 17 35 41 47 56 51 41 59 68 42 27 48 50 49 45 55 71 80 244 284 321 307 249 231 233 75
66 49 12 325 336 339 334 17 2 342 337 344 342 337 357 0 351 340 356 14 27 43 57 55 47 49 60 52 44 44 41 40 38 47 53 45 35 20 15 12 356 306 267 295
49 69 23 297 324 351 211 342 346 340 331 341 351 13 343 333 330 328 7 27 42 45 50 52 43 50 52 42 42 39 40 52 49 49 46 37 29 19 14 22 29 40 64 69
32 58 282 302 310 309 356 315 324 322 318 329 341 306 302 314 325 327 356 60 65 63 61 54 52 57 49 38 28 21 43 69 55 54 58 43 31 23 23 30 36 44 58 57
12 16 313 314 347 17 270 296 300 304 296 306 314 311 315 321 331 333 357 36 51 43 24 17 30 49 40 26 8 44 64 70 53 39 34 35 48 40 37 43 44 30 28 20
207 244 250 77 207 276 280 286 285 289 292 294 309 318 324 332 339 342 315 329 29 15 333 341 350 7 9 341 9 61 69 63 45 47 46 40 48 40 34 32 33 18 19 15
150 266 248 186 238 280 283 286 294 297 295 299 304 314 323 336 339 338 318 307 7 349 307 334 334 305 284 333 61 73 70 73 41 32 29 32 37 42 41 21 5 9 10 357
158 258 207 198 248 271 283 289 289 298 294 293 302 308 315 325 330 336 325 302 303 262 292 320 340 312 294 59 75 91 84 28 333 348 328 349 17 22 22 8 353 359 347 323
195 193 174 244 276 280 282 301 313 317 319 322 309 314 327 326 320 325 331 318 288 271 275 293 322 287 266 206 127 125 138 207 305 329 327 318 310 319 59 18 5 3 333 344
169 177 180 230 276 303 294 315 340 344 332 330 336 339 337 327 323 328 331 335 301 263 256 265 269 260 247 216 176 146 154 189 215 349 345 343 343 348 339 345 345 13 20 27
163 149 168 179 243 331 359 352 357 351 343 340 336 340 337 329 325 331 328 320 303 275 250 249 264 270 246 210 190 165 161 178 173 145 16 4 17 47 52 39 28 357 305 320
173 164 170 177 125 19 7 2 7 349 339 342 349 347 343 335 329 326 326 324 323 311 271 246 253 267 230 194 182 168 157 165 169 166 302 345 99 67 43 43 36 14 359 344
166 162 156 158 143 9 358 349 341 334 337 336 342 346 339 328 320 321 327 333 335 325 304 273 255 256 211 183 167 163 164 164 163 155 203 133 113 74 63 64 53 41 26 355
155 167 166 173 183 230 292 305 301 307 320 332 330 331 335 340 343 344 339 336 328 317 317 303 279 270 216 179 166 166 168 162 152 140 137 138 139 129 106 100 87 58 17 7
167 166 167 172 186 215 266 298 308 311 300 307 327 338 341 349 346 338 329 328 333 339 345 333 316 289 205 176 168 163 167 159 155 153 146 128 132 138 129 114 96 71 39 56
159 159 168 173 185 200 233 263 283 301 308 320 339 341 332 335 334 329 330 337 356 356 342 334 328 320 182 168 160 156 158 156 154 150 163 147 130 122 124 122 113 94 88 82
161 163 169 181 193 199 224 255 286 305 316 328 331 339 336 332 334 333 334 335 331 324 325 330 337 352 158 156 146 152 150 154 159 166 165 138 129 123 128 138 140 126 117 117
165 165 172 189 205 215 221 242 265 294 315 329 329 336 331 324 327 331 335 330 320 324 329 328 334 329 252 154 140 145 146 153 162 169 160 148 143 139 139 138 139 142 127 107
168 169 180 194 201 211 226 232 244 269 292 321 334 330 328 323 324 324 314 293 303 313 319 317 314 309 255 168 150 148 148 152 153 157 155 157 154 154 157 149 149 153 131 113
172 178 187 196 199 204 208 218 237 225 244 298 306 308 311 307 308 315 320 310 308 306 310 304 308 309 223 165 163 157 157 159 159 164 171 163 163 163 161 157 157 158 136 127
176 183 194 201 191 188 211 225 214 228 241 246 271 289 294 306 307 284 281 294 301 305 307 300 305 305 185 173 171 164 164 169 170 165 159 146 146 148 153 155 152 154 142 131
182 187 191 190 192 207 221 220 207 218 234 261 291 298 291 280 280 290 302 305 304 303 303 307 313 305 170 179 185 178 177 177 174 164 160 155 154 153 159 167 161 155 145 132
184 189 198 200 204 209 207 203 210 214 203 246 281 287 292 298 298 297 302 305 304 303 305 311 311 285 200 192 192 184 176 171 169 165 161 162 164 164 166 170 163 146 135 119
192 197 197 210 223 212 200 197 203 219 213 216 244 272 288 302 306 308 309 311 312 309 310 318 317 284 242 213 194 185 178 173 172 169 166 165 170 171 171 170 178 165 147 136
Height
1536 1533 1531 1534 1530 1522 1518 1519 1526 1528 1530 1529 1522 1517 1510 1503 1496 1492 1486 1478 1476 1477 1477 1478 1479 1481 1483 1486 1487 1490 1493 1495 1497 1497 1499 1498 1500 1502 1499 1498 1498 1497 1497 1497
1539 1535 1532 1538 1536 1531 1527 1529 1530 1529 1528 1524 1519 1514 1507 1500 1494 1493 1491 1483 1479 1480 1480 1482 1482 1483 1485 1486 1485 1487 1492 1491 1488 1486 1488 1491 1490 1491 1490 1489 1489 1493 1493 1494
1543 1535 1535 1547 1545 1543 1540 1538 1537 1540 1537 1529 1522 1516 1511 1504 1500 1497 1493 1489 1486 1487 1486 1486 1486 1486 1486 1489 1489 1487 1485 1485 1485 1486 1487 1489 1489 1488 1489 1487 1485 1486 1488 1489
1547 1543 1552 1555 1547 1547 1545 1544 1544 1542 1538 1534 1527 1520 1513 1509 1506 1503 1499 1497 1495 1493 1491 1491 1492 1491 1487 1490 1490 1488 1486 1485 1484 1484 1484 1484 1484 1486 1485 1484 1484 1485 1486 1486
1554 1558 1557 1552 1548 1548 1547 1548 1544 1541 1536 1530 1524 1518 1514 1510 1509 1508 1504 1503 1502 1499 1497 1496 1494 1492 1492 1491 1489 1488 1487 1485 1485 1484 1484 1483 1482 1482 1482 1481 1481 1482 1482 1483
1554 1557 1562 1556 1549 1548 1549 1548 1544 1541 1537 1532 1527 1522 1521 1515 1513 1513 1510 1508 1505 1503 1501 1498 1497 1496 1494 1493 1492 1490 1490 1489 1488 1486 1485 1483 1482 1481 1480 1479 1479 1479 1479 1479
1558 1558 1558 1552 1549 1550 1556 1554 1545 1541 1537 1535 1534 1534 1526 1518 1516 1514 1513 1510 1508 1505 1503 1502 1501 1499 1497 1496 1495 1494 1494 1493 1492 1490 1487 1485 1484 1483 1482 1481 1480 1480 1479 1479
1562 1562 1567 1552 1550 1553 1552 1547 1544 1542 1539 1534 1531 1529 1526 1521 1517 1514 1513 1511 1509 1507 1505 1505 1503 1502 1500 1499 1499 1498 1497 1495 1493 1490 1488 1488 1486 1485 1485 1484 1482 1481 1479 1478
1558 1561 1554 1553 1552 1550 1547 1545 1543 1541 1538 1535 1531 1527 1523 1520 1517 1515 1514 1513 1511 1510 1508 1507 1506 1504 1503 1501 1500 1499 1498 1496 1494 1492 1491 1490 1488 1486 1485 1484 1483 1481 1479 1478
1554 1553 1551 1552 1552 1550 1548 1545 1542 1539 1535 1533 1530 1527 1522 1519 1518 1516 1515 1514 1513 1512 1511 1509 1508 1506 1505 1503 1501 1499 1498 1497 1496 1495 1493 1491 1489 1488 1487 1486 1484 1481 1478 1477
1551 1551 1550 1550 1549 1547 1545 1544 1541 1538 1535 1533 1530 1528 1525 1521 1519 1518 1516 1515 1514 1513 1512 1511 1509 1508 1507 1504 1502 1500 1499 1498 1497 1495 1493 1492 1491 1489 1487 1485 1483 1480 1478 1476
1547 1546 1547 1547 1546 1544 1543 1542 1540 1537 1534 1532 1530 1528 1525 1522 1520 1518 1516 1515 1514 1513 1512 1511 1510 1508 1507 1505 1502 1500 1499 1498 1496 1495 1493 1492 1491 1489 1487 1485 1483 1480 1479 1477
1538 1541 1543 1544 1544 1543 1542 1540 1538 1536 1534 1531 1529 1527 1524 1522 1520 1518 1516 1515 1514 1512 1512 1511 1510 1508 1506 1504 1502 1500 1499 1497 1496 1494 1493 1492 1491 1490 1487 1485 1483 1482 1480 1479
1534 1537 1539 1540 1540 1541 1540 1539 1538 1535 1533 1530 1527 1525 1522 1520 1519 1517 1515 1513 1512 1510 1509 1509 1508 1506 1505 1503 1501 1499 1498 1497 1496 1495 1494 1493 1492 1490 1487 1486 1485 1483 1482 1481
1531 1534 1536 1537 1538 1537 1537 1536 1536 1534 1531 1528 1525 1523 1521 1518 1517 1515 1514 1512 1510 1508 1507 1506 1506 1504 1503 1502 1500 1498 1497 1496 1495 1494 1494 1493 1492 1490 1488 1487 1486 1484 1483 1482
1529 1532 1533 1535 1535 1535 1534 1533 1532 1531 1529 1527 1524 1521 1519 1517 1515 1514 1512 1511 1509 1507 1505 1504 1503 1502 1501 1500 1499 1497 1496 1495 1494 1493 1494 1494 1493 1491 1490 1488 1486 1484 1483 1483
1525 1528 1530 1532 1533 1533 1533 1532 1531 1531 1529 1526 1524 1521 1518 1515 1513 1511 1510 1509 1508 1507 1504 1502 1501 1500 1499 1498 1497 1496 1494 1494 1493 1493 1493 1493 1493 1492 1491 1489 1488 1486 1485 1484
1522 1525 1527 1530 1530 1531 1532 1531 1530 1529 1527 1525 1523 1521 1517 1513 1510 1509 1508 1507 1505 1505 1502 1500 1498 1497 1496 1495 1495 1494 1493 1493 1493 1493 1493 1493 1493 1493 1492 1491 1489 1489 1487 1486
1518 1522 1524 1526 1528 1529 1529 1529 1528 1528 1526 1524 1521 1519 1516 1513 1509 1506 1506 1504 1502 1500 1499 1497 1495 1494 1494 1493 1493 1493 1492 1492 1492 1492 1492 1493 1493 1493 1493 1492 1491 1491 1490 1489
1515 1519 1521 1523 1524 1526 1527 1527 1527 1526 1525 1523 1521 1517 1514 1511 1508 1505 1503 1501 1500 1498 1497 1495 1494 1492 1492 1492 1492 1492 1491 1490 1491 1491 1492 1493 1494 1494 1493 1493 1492 1492 1491 1490
1511 1514 1517 1519 1521 1522 1524 1525 1524 1524 1523 1521 1519 1515 1512 1509 1506 1503 1500 1498 1498 1496 1495 1494 1492 1492 1491 1491 1491 1491 1490 1490 1490 1490 1491 1492 1493 1493 1492 1492 1492 1492 1492 1491
1507 1509 1512 1515 1517 1518 1519 1521 1521 1520 1520 1518 1516 1513 1510 1507 1504 1501 1498 1496 1493 1492 1491 1491 1490 1490 1490 1490 1490 1490 1490 1489 1489 1489 1489 1490 1491 1492 1492 1492 1493 1493 1492 1491
1503 1506 1508 1511 1513 1514 1515 1516 1517 1517 1516 1515 1513 1511 1507 1504 1501 1498 1495 1493 1491 1489 1487 1488 1487 1487 1488 1488 1489 1489 1489 1489 1488 1488 1489 1490 1491 1492 1492 1492 1492 1492 1491 1491
1499 1502 1505 1508 1509 1510 1511 1512 1513 1513 1513 1511 1510 1508 1506 1502 1499 1497 1493 1490 1487 1485 1484 1484 1484 1484 1485 1486 1487 1488 1488 1488 1487 1487 1488 1489 1490 1491 1491 1491 1491 1490 1490 1491
1495 1498 1501 1503 1505 1506 1508 1508 1508 1508 1509 1508 1507 1505 1504 1501 1497 1493 1490 1487 1483 1482 1481 1480 1481 1481 1482 1483 1484 1485 1486 1487 1487 1486 1487 1488 1488 1489 1490 1490 1489 1489 1489 1489
1491 1493 1496 1499 1501 1502 1503 1504 1504 1503 1503 1504 1504 1503 1501 1499 1496 1493 1489 1485 1482 1479 1478 1478 1478 1479 1480 1481 1482 1483 1484 1485 1485 1485 1485 1486 1487 1488 1488 1488 1489 1488 1488 1487
1487 1489 1492 1494 1496 1497 1498 1499 1499 1499 1499 1499 1500 1500 1498 1496 1494 1491 1488 1485 1481 1479 1477 1476 1477 1477 1477 1478 1479 1480 1482 1483 1484 1485 1484 1485 1486 1487 1487 1488 1488 1488 1487 1487